When you browse on this site, cookies collect data to enhance your experience and personalize the content and advertising you see.
Visit our Privacy Policy to learn more. By continuing to use the site, you agree to this use of cookies and data.
  • In Netherlands
  • List of Countries
  • For 7 days
  • Water Temperature
  • Satellite Maps
  • Weather Map
  • Weather Widgets
  • user-avatar
    Login

    Hourly Weather Koronowo

    Today, 25 April, Thursday

    Time Temperature Precipitation Wind Pressure Humidity
    00:00 +14°C° 0 mm 5 mps 750 mmHg 78%
    01:00 +13°C° 0 mm 4 mps 750 mmHg 80%
    02:00 +13°C° 0 mm 4 mps 750 mmHg 80%
    03:00 +13°C° 0 mm 4 mps 750 mmHg 81%
    04:00 +13°C° 0 mm 4 mps 750 mmHg 81%
    05:00 +14°C° 0 mm 4 mps 750 mmHg 78%
    06:00 +14°C° 0 mm 4 mps 750 mmHg 75%
    07:00 +15°C° 0 mm 5 mps 750 mmHg 72%
    08:00 +17°C° 0 mm 5 mps 750 mmHg 67%
    09:00 +20°C° 0 mm 4 mps 750 mmHg 63%
    10:00 +21°C° 0 mm 4 mps 750 mmHg 59%
    11:00 +22°C° 0 mm 4 mps 751 mmHg 56%
    12:00 +23°C° 0 mm 4 mps 751 mmHg 53%
    13:00 +25°C° 0 mm 4 mps 751 mmHg 50%
    14:00 +25°C° 0 mm 3 mps 751 mmHg 49%
    15:00 +25°C° 0 mm 2 mps 750 mmHg 49%
    16:00 +25°C° 0 mm 2 mps 750 mmHg 48%
    17:00 +24°C° 0 mm 1 mps 750 mmHg 54%
    18:00 +22°C° 0 mm 1 mps 750 mmHg 59%
    19:00 +21°C° 0 mm 1 mps 750 mmHg 65%
    20:00 +20°C° 0 mm 1 mps 750 mmHg 68%
    21:00 +19°C° 0 mm 1 mps 751 mmHg 72%
    22:00 +18°C° 0 mm 1 mps 751 mmHg 75%
    23:00 +18°C° 0 mm 1 mps 751 mmHg 77%

    Tomorrow, 26 April, Friday

    Time Temperature Precipitation Wind Pressure Humidity
    00:00 +16°C° 0 mm 1 mps 750 mmHg 80%
    01:00 +15°C° 0 mm 1 mps 750 mmHg 82%
    02:00 +15°C° 0 mm 2 mps 750 mmHg 84%
    03:00 +15°C° 0 mm 2 mps 750 mmHg 85%
    04:00 +14°C° 0 mm 2 mps 749 mmHg 87%
    05:00 +15°C° 0 mm 2 mps 749 mmHg 82%
    06:00 +17°C° 0 mm 2 mps 749 mmHg 77%
    07:00 +18°C° 0 mm 3 mps 749 mmHg 72%
    08:00 +20°C° 0 mm 3 mps 748 mmHg 65%
    09:00 +22°C° 0 mm 4 mps 748 mmHg 57%
    10:00 +25°C° 0 mm 4 mps 748 mmHg 50%
    11:00 +26°C° 0 mm 4 mps 747 mmHg 47%
    12:00 +26°C° 0 mm 4 mps 747 mmHg 44%
    13:00 +27°C° 0 mm 5 mps 747 mmHg 41%
    14:00 +27°C° 0 mm 5 mps 746 mmHg 42%
    15:00 +27°C° 0 mm 4 mps 746 mmHg 42%
    16:00 +27°C° 0 mm 4 mps 746 mmHg 43%
    17:00 +25°C° 0 mm 3 mps 745 mmHg 50%
    18:00 +23°C° 0 mm 2 mps 745 mmHg 56%
    19:00 +22°C° 0 mm 1 mps 745 mmHg 62%
    20:00 +21°C° 0 mm 1 mps 745 mmHg 65%
    21:00 +20°C° 0 mm 1 mps 745 mmHg 68%
    22:00 +19°C° 0 mm 1 mps 745 mmHg 70%
    23:00 +18°C° 0 mm 1 mps 745 mmHg 72%

    Day after tomorrow, 27 April, Saturday

    Time Temperature Precipitation Wind Pressure Humidity
    00:00 +17°C° 0 mm 2 mps 745 mmHg 75%
    01:00 +17°C° 0 mm 2 mps 745 mmHg 77%
    02:00 +16°C° 0 mm 3 mps 745 mmHg 82%
    03:00 +15°C° 0 mm 4 mps 746 mmHg 87%
    04:00 +14°C° 0 mm 4 mps 746 mmHg 92%
    05:00 +14°C° 0.1 mm 5 mps 746 mmHg 89%
    06:00 +14°C° 0.1 mm 5 mps 747 mmHg 86%
    07:00 +14°C° 0.1 mm 6 mps 747 mmHg 83%
    08:00 +13°C° 0 mm 6 mps 747 mmHg 82%
    09:00 +13°C° 0 mm 6 mps 748 mmHg 81%
    10:00 +13°C° 0 mm 6 mps 748 mmHg 80%
    11:00 +13°C° 0 mm 6 mps 748 mmHg 75%
    12:00 +14°C° 0 mm 6 mps 749 mmHg 71%
    13:00 +15°C° 0 mm 6 mps 749 mmHg 66%
    14:00 +15°C° 0 mm 5 mps 749 mmHg 64%
    15:00 +15°C° 0 mm 4 mps 749 mmHg 62%
    16:00 +15°C° 0 mm 4 mps 749 mmHg 60%
    17:00 +14°C° 0 mm 3 mps 749 mmHg 62%
    18:00 +14°C° 0 mm 2 mps 749 mmHg 64%
    19:00 +13°C° 0 mm 2 mps 749 mmHg 66%
    20:00 +12°C° 0 mm 1 mps 749 mmHg 65%
    21:00 +11°C° 0 mm 1 mps 750 mmHg 64%
    22:00 +11°C° 0 mm 1 mps 750 mmHg 63%
    23:00 +10°C° 0 mm 1 mps 750 mmHg 63%

    28 April, Sunday

    Time Temperature Precipitation Wind Pressure Humidity
    00:00 +10°C° 0 mm 1 mps 750 mmHg 62%
    01:00 +10°C° 0 mm 1 mps 750 mmHg 61%
    02:00 +10°C° 0 mm 1 mps 750 mmHg 61%
    03:00 +10°C° 0 mm 1 mps 750 mmHg 62%
    04:00 +10°C° 0 mm 1 mps 750 mmHg 62%
    05:00 +10°C° 0 mm 2 mps 751 mmHg 61%
    06:00 +12°C° 0 mm 2 mps 751 mmHg 61%
    07:00 +13°C° 0 mm 2 mps 751 mmHg 61%
    08:00 +12°C° 0 mm 3 mps 751 mmHg 61%
    09:00 +13°C° 0 mm 3 mps 752 mmHg 61%
    10:00 +13°C° 0 mm 4 mps 752 mmHg 61%
    11:00 +13°C° 0.1 mm 4 mps 752 mmHg 61%
    12:00 +14°C° 0.1 mm 4 mps 752 mmHg 60%
    13:00 +14°C° 0.1 mm 4 mps 752 mmHg 60%
    14:00 +14°C° 0 mm 5 mps 752 mmHg 60%
    15:00 +14°C° 0 mm 5 mps 752 mmHg 60%
    16:00 +14°C° 0 mm 5 mps 752 mmHg 60%
    17:00 +13°C° 0.3 mm 4 mps 752 mmHg 67%
    18:00 +11°C° 0.3 mm 4 mps 752 mmHg 74%
    19:00 +10°C° 0.3 mm 4 mps 753 mmHg 80%
    20:00 +10°C° 1 mm 3 mps 753 mmHg 84%
    21:00 +10°C° 1 mm 3 mps 753 mmHg 88%
    22:00 +9°C° 1 mm 3 mps 753 mmHg 92%
    23:00 +9°C° 0.8 mm 3 mps 753 mmHg 93%

    29 April, Monday

    Time Temperature Precipitation Wind Pressure Humidity
    00:00 +9°C° 0.8 mm 2 mps 753 mmHg 94%
    01:00 +9°C° 0.8 mm 2 mps 753 mmHg 95%
    02:00 +10°C° 0.6 mm 2 mps 753 mmHg 95%
    03:00 +10°C° 0.6 mm 2 mps 753 mmHg 96%
    04:00 +10°C° 0.6 mm 2 mps 753 mmHg 96%
    05:00 +10°C° 0.6 mm 3 mps 753 mmHg 95%
    06:00 +10°C° 0.6 mm 4 mps 753 mmHg 94%
    07:00 +9°C° 0.6 mm 5 mps 753 mmHg 93%
    08:00 +10°C° 0.3 mm 5 mps 753 mmHg 88%
    09:00 +10°C° 0.3 mm 6 mps 753 mmHg 83%
    10:00 +11°C° 0.3 mm 6 mps 754 mmHg 78%
    11:00 +13°C° 0 mm 6 mps 754 mmHg 71%
    12:00 +14°C° 0 mm 6 mps 754 mmHg 65%
    13:00 +16°C° 0 mm 6 mps 754 mmHg 58%
    14:00 +15°C° 0 mm 6 mps 754 mmHg 57%
    15:00 +15°C° 0 mm 5 mps 754 mmHg 57%
    16:00 +15°C° 0 mm 5 mps 754 mmHg 56%
    17:00 +14°C° 0 mm 5 mps 754 mmHg 58%
    18:00 +12°C° 0 mm 5 mps 754 mmHg 59%
    19:00 +10°C° 0 mm 5 mps 754 mmHg 61%
    20:00 +9°C° 0 mm 5 mps 755 mmHg 63%
    21:00 +8°C° 0 mm 5 mps 755 mmHg 65%
    22:00 +8°C° 0 mm 5 mps 755 mmHg 68%
    23:00 +7°C° 0 mm 4 mps 755 mmHg 70%

    30 April, Tuesday

    Time Temperature Precipitation Wind Pressure Humidity
    00:00 +6°C° 0 mm 4 mps 755 mmHg 72%
    01:00 +5°C° 0 mm 3 mps 755 mmHg 74%
    02:00 +5°C° 0 mm 3 mps 755 mmHg 75%
    03:00 +4°C° 0 mm 3 mps 755 mmHg 77%
    04:00 +4°C° 0 mm 3 mps 756 mmHg 78%
    05:00 +5°C° 0 mm 4 mps 756 mmHg 74%
    06:00 +6°C° 0 mm 4 mps 756 mmHg 69%
    07:00 +7°C° 0 mm 4 mps 756 mmHg 65%
    08:00 +8°C° 0 mm 5 mps 756 mmHg 59%
    09:00 +10°C° 0 mm 5 mps 756 mmHg 54%
    10:00 +11°C° 0 mm 6 mps 756 mmHg 48%
    11:00 +13°C° 0 mm 5 mps 756 mmHg 47%
    12:00 +14°C° 0 mm 5 mps 755 mmHg 46%
    13:00 +14°C° 0 mm 5 mps 755 mmHg 45%
    14:00 +14°C° 0 mm 5 mps 755 mmHg 46%
    15:00 +14°C° 0 mm 6 mps 755 mmHg 47%
    16:00 +14°C° 0 mm 6 mps 755 mmHg 48%
    17:00 +13°C° 0 mm 5 mps 755 mmHg 52%
    18:00 +12°C° 0 mm 5 mps 755 mmHg 56%
    19:00 +10°C° 0 mm 4 mps 755 mmHg 60%
    20:00 +8°C° 0 mm 4 mps 755 mmHg 63%
    21:00 +7°C° 0 mm 4 mps 755 mmHg 65%
    22:00 +6°C° 0 mm 4 mps 755 mmHg 67%
    23:00 +6°C° 0 mm 4 mps 755 mmHg 70%
    Show more